Time,TemperatureF,DewpointF,PressureIn,WindDirection,WindDirectionDegrees,WindSpeedMPH,WindSpeedGustMPH,Humidity,HourlyPrecipIn,Conditions,Clouds,dailyrainin,SoftwareType,DateUTC
2013-03-14 00:16:00,37.2,17.8,30.02,South,180,11.4,-999.0,45,-99.99,,,0.00,Acu-Link.com,2013-03-14 04:16:00,
2013-03-14 00:32:00,36.7,17.4,30.02,SW,225,5.8,-999.0,45,-99.99,,,0.00,Acu-Link.com,2013-03-14 04:32:00,
2013-03-14 00:47:00,36.0,17.7,30.03,WSW,247,2.2,-999.0,47,-99.99,,,0.00,Acu-Link.com,2013-03-14 04:47:00,
2013-03-14 01:02:00,36.0,17.7,30.03,SW,225,6.8,-999.0,47,-99.99,,,0.00,Acu-Link.com,2013-03-14 05:02:00,
2013-03-14 01:18:00,35.8,17.1,30.03,South,180,4.2,-999.0,46,-99.99,,,0.00,Acu-Link.com,2013-03-14 05:18:00,
2013-03-14 01:33:00,35.8,17.1,30.03,South,180,7.3,-999.0,46,-99.99,,,0.00,Acu-Link.com,2013-03-14 05:33:00,
2013-03-14 01:48:00,35.1,17.4,30.04,SW,225,5.3,-999.0,48,-99.99,,,0.00,Acu-Link.com,2013-03-14 05:48:00,
2013-03-14 02:03:00,35.2,17.0,30.04,South,180,5.3,-999.0,47,-99.99,,,0.00,Acu-Link.com,2013-03-14 06:03:00,
2013-03-14 02:18:00,34.7,17.0,30.04,SW,225,3.2,-999.0,48,-99.99,,,0.00,Acu-Link.com,2013-03-14 06:18:00,
2013-03-14 02:33:00,34.5,17.3,30.04,SSW,202,3.7,-999.0,49,-99.99,,,0.00,Acu-Link.com,2013-03-14 06:33:00,
2013-03-14 02:48:00,34.2,17.5,30.04,SW,225,4.2,-999.0,50,-99.99,,,0.00,Acu-Link.com,2013-03-14 06:48:00,
2013-03-14 03:03:00,33.6,17.4,30.04,WSW,247,3.2,-999.0,51,-99.99,,,0.00,Acu-Link.com,2013-03-14 07:03:00,
2013-03-14 03:19:00,33.3,17.6,30.04,SSW,202,2.7,-999.0,52,-99.99,,,0.00,Acu-Link.com,2013-03-14 07:19:00,
2013-03-14 03:34:00,32.9,17.7,30.04,South,180,3.2,-999.0,53,-99.99,,,0.00,Acu-Link.com,2013-03-14 07:34:00,
2013-03-14 03:49:00,32.7,17.5,30.04,South,180,3.2,-999.0,53,-99.99,,,0.00,Acu-Link.com,2013-03-14 07:49:00,
2013-03-14 04:04:00,33.1,17.0,30.04,WNW,292,3.2,-999.0,51,-99.99,,,0.00,Acu-Link.com,2013-03-14 08:04:00,
2013-03-14 04:19:00,32.9,17.2,30.03,SSW,202,4.2,-999.0,52,-99.99,,,0.00,Acu-Link.com,2013-03-14 08:19:00,
2013-03-14 04:35:00,32.5,17.3,30.04,SSW,202,1.7,-999.0,53,-99.99,,,0.00,Acu-Link.com,2013-03-14 08:35:00,
2013-03-14 04:50:00,32.2,17.4,30.04,SSE,157,1.1,-999.0,54,-99.99,,,0.00,Acu-Link.com,2013-03-14 08:50:00,
2013-03-14 05:05:00,31.6,17.3,30.04,SSE,157,2.2,-999.0,55,-99.99,,,0.00,Acu-Link.com,2013-03-14 09:05:00,
2013-03-14 05:20:00,31.5,17.2,30.05,South,180,1.7,-999.0,55,-99.99,,,0.00,Acu-Link.com,2013-03-14 09:20:00,
2013-03-14 05:35:00,31.1,17.3,30.05,SSW,202,2.7,-999.0,56,-99.99,,,0.00,Acu-Link.com,2013-03-14 09:35:00,
2013-03-14 05:50:00,31.3,17.0,30.06,South,180,3.7,-999.0,55,-99.99,,,0.00,Acu-Link.com,2013-03-14 09:50:00,
2013-03-14 06:06:00,31.3,17.0,30.06,SSW,202,3.2,-999.0,55,-99.99,,,0.00,Acu-Link.com,2013-03-14 10:06:00,
2013-03-14 06:21:00,30.9,17.5,30.07,South,180,1.7,-999.0,57,-99.99,,,0.00,Acu-Link.com,2013-03-14 10:21:00,
2013-03-14 06:52:00,30.2,17.2,30.07,SSW,202,3.2,-999.0,58,-99.99,,,0.00,Acu-Link.com,2013-03-14 10:52:00,
2013-03-14 07:07:00,29.8,17.2,30.08,SW,225,1.7,-999.0,59,-99.99,,,0.00,Acu-Link.com,2013-03-14 11:07:00,
2013-03-14 07:22:00,30.0,17.4,30.08,SW,225,1.7,-999.0,59,-99.99,,,0.00,Acu-Link.com,2013-03-14 11:22:00,
2013-03-14 07:37:00,30.0,17.8,30.09,NNW,337,0.0,-999.0,60,-99.99,,,0.00,Acu-Link.com,2013-03-14 11:37:00,
2013-03-14 07:52:00,30.9,17.9,30.09,South,180,2.2,-999.0,58,-99.99,,,0.00,Acu-Link.com,2013-03-14 11:52:00,
2013-03-14 08:08:00,31.8,17.9,30.10,SSW,202,4.2,-999.0,56,-99.99,,,0.00,Acu-Link.com,2013-03-14 12:08:00,
2013-03-14 08:23:00,32.2,18.3,30.11,WSW,247,2.2,-999.0,56,-99.99,,,0.00,Acu-Link.com,2013-03-14 12:23:00,
2013-03-14 08:38:00,33.3,18.5,30.11,SSW,202,4.2,-999.0,54,-99.99,,,0.00,Acu-Link.com,2013-03-14 12:38:00,
2013-03-14 08:53:00,34.2,18.9,30.11,SSW,202,5.3,-999.0,53,-99.99,,,0.00,Acu-Link.com,2013-03-14 12:53:00,
2013-03-14 09:08:00,34.7,18.9,30.11,South,180,3.2,-999.0,52,-99.99,,,0.00,Acu-Link.com,2013-03-14 13:08:00,
2013-03-14 09:23:00,35.4,18.6,30.11,SSW,202,5.3,-999.0,50,-99.99,,,0.00,Acu-Link.com,2013-03-14 13:23:00,
2013-03-14 09:39:00,35.8,18.5,30.11,SSW,202,6.3,-999.0,49,-99.99,,,0.00,Acu-Link.com,2013-03-14 13:39:00,
2013-03-14 09:54:00,36.7,18.9,30.11,SW,225,7.8,-999.0,48,-99.99,,,0.00,Acu-Link.com,2013-03-14 13:54:00,
2013-03-14 10:09:00,37.8,18.4,30.11,SSW,202,5.3,-999.0,45,-99.99,,,0.00,Acu-Link.com,2013-03-14 14:09:00,
2013-03-14 10:24:00,39.9,18.7,30.12,South,180,5.3,-999.0,42,-99.99,,,0.00,Acu-Link.com,2013-03-14 14:24:00,
2013-03-14 10:39:00,40.8,18.9,30.12,South,180,2.7,-999.0,41,-99.99,,,0.00,Acu-Link.com,2013-03-14 14:39:00,
2013-03-14 10:54:00,41.5,18.4,30.11,South,180,8.3,-999.0,39,-99.99,,,0.00,Acu-Link.com,2013-03-14 14:54:00,
2013-03-14 11:10:00,43.2,19.3,30.11,WNW,292,3.7,-999.0,38,-99.99,,,0.00,Acu-Link.com,2013-03-14 15:10:00,
2013-03-14 11:25:00,44.8,20.8,30.11,SSW,202,6.3,-999.0,38,-99.99,,,0.00,Acu-Link.com,2013-03-14 15:25:00,
2013-03-14 11:40:00,44.6,20.0,30.11,SSW,202,4.7,-999.0,37,-99.99,,,0.00,Acu-Link.com,2013-03-14 15:40:00,
2013-03-14 11:55:00,43.7,17.9,30.10,South,180,5.8,-999.0,35,-99.99,,,0.00,Acu-Link.com,2013-03-14 15:55:00,
2013-03-14 12:10:00,45.5,18.8,30.09,SSW,202,7.8,-999.0,34,-99.99,,,0.00,Acu-Link.com,2013-03-14 16:10:00,
2013-03-14 12:25:00,48.6,20.1,30.09,West,270,4.7,-999.0,32,-99.99,,,0.00,Acu-Link.com,2013-03-14 16:25:00,
2013-03-14 12:41:00,46.6,20.4,30.09,SSE,157,3.2,-999.0,35,-99.99,,,0.00,Acu-Link.com,2013-03-14 16:41:00,
2013-03-14 12:56:00,46.0,19.9,30.08,South,180,6.3,-999.0,35,-99.99,,,0.00,Acu-Link.com,2013-03-14 16:56:00,
2013-03-14 13:26:00,45.7,19.0,30.06,SSW,202,3.7,-999.0,34,-99.99,,,0.00,Acu-Link.com,2013-03-14 17:26:00,
2013-03-14 13:41:00,46.8,19.9,30.06,South,180,7.3,-999.0,34,-99.99,,,0.00,Acu-Link.com,2013-03-14 17:41:00,
2013-03-14 13:57:00,47.1,19.5,30.05,SSE,157,7.3,-999.0,33,-99.99,,,0.00,Acu-Link.com,2013-03-14 17:57:00,
2013-03-14 14:12:00,47.8,20.1,30.05,South,180,5.8,-999.0,33,-99.99,,,0.00,Acu-Link.com,2013-03-14 18:12:00,
2013-03-14 14:27:00,47.5,19.8,30.04,SSW,202,6.3,-999.0,33,-99.99,,,0.00,Acu-Link.com,2013-03-14 18:27:00,
2013-03-14 14:42:00,48.7,20.9,30.03,SSE,157,6.3,-999.0,33,-99.99,,,0.00,Acu-Link.com,2013-03-14 18:42:00,
2013-03-14 14:57:00,49.5,22.3,30.02,SW,225,2.2,-999.0,34,-99.99,,,0.00,Acu-Link.com,2013-03-14 18:57:00,
2013-03-14 15:12:00,50.4,20.9,30.02,South,180,5.3,-999.0,31,-99.99,,,0.00,Acu-Link.com,2013-03-14 19:12:00,
2013-03-14 15:27:00,50.9,22.1,30.00,SW,225,4.2,-999.0,32,-99.99,,,0.00,Acu-Link.com,2013-03-14 19:27:00,
2013-03-14 15:42:00,50.9,19.8,30.01,SSW,202,3.7,-999.0,29,-99.99,,,0.00,Acu-Link.com,2013-03-14 19:42:00,
2013-03-14 15:58:00,51.4,18.6,30.01,West,270,5.3,-999.0,27,-99.99,,,0.00,Acu-Link.com,2013-03-14 19:58:00,
2013-03-14 16:13:00,52.0,19.1,30.00,WNW,292,3.7,-999.0,27,-99.99,,,0.00,Acu-Link.com,2013-03-14 20:13:00,
2013-03-14 16:28:00,53.1,20.9,29.99,SW,225,5.3,-999.0,28,-99.99,,,0.00,Acu-Link.com,2013-03-14 20:28:00,
2013-03-14 16:43:00,53.6,19.6,29.99,WSW,247,5.8,-999.0,26,-99.99,,,0.00,Acu-Link.com,2013-03-14 20:43:00,
2013-03-14 16:58:00,53.8,16.9,29.98,SW,225,1.7,-999.0,23,-99.99,,,0.00,Acu-Link.com,2013-03-14 20:58:00,
2013-03-14 17:13:00,54.3,19.2,29.98,SSW,202,2.7,-999.0,25,-99.99,,,0.00,Acu-Link.com,2013-03-14 21:13:00,
2013-03-14 17:28:00,53.2,19.2,29.98,SSW,202,3.2,-999.0,26,-99.99,,,0.00,Acu-Link.com,2013-03-14 21:28:00,
2013-03-14 17:43:00,53.4,20.3,29.97,South,180,4.7,-999.0,27,-99.99,,,0.00,Acu-Link.com,2013-03-14 21:43:00,
2013-03-14 17:58:00,53.1,19.1,29.97,SW,225,4.7,-999.0,26,-99.99,,,0.00,Acu-Link.com,2013-03-14 21:58:00,
2013-03-14 18:13:00,52.5,19.5,29.98,South,180,2.7,-999.0,27,-99.99,,,0.00,Acu-Link.com,2013-03-14 22:13:00,
2013-03-14 18:28:00,51.6,19.6,29.98,West,270,2.7,-999.0,28,-99.99,,,0.00,Acu-Link.com,2013-03-14 22:28:00,
2013-03-14 18:44:00,50.7,18.8,29.97,North,0,2.2,-999.0,28,-99.99,,,0.00,Acu-Link.com,2013-03-14 22:44:00,
2013-03-14 18:59:00,50.4,17.7,29.98,SSW,202,4.7,-999.0,27,-99.99,,,0.00,Acu-Link.com,2013-03-14 22:59:00,
2013-03-14 19:14:00,49.3,19.2,29.99,SSW,202,3.7,-999.0,30,-99.99,,,0.00,Acu-Link.com,2013-03-14 23:14:00,
2013-03-14 19:30:00,48.6,17.0,29.99,South,180,2.7,-999.0,28,-99.99,,,0.00,Acu-Link.com,2013-03-14 23:30:00,
2013-03-14 19:45:00,47.5,17.6,29.99,South,180,2.7,-999.0,30,-99.99,,,0.00,Acu-Link.com,2013-03-14 23:45:00,
2013-03-14 20:00:00,46.2,18.7,29.99,ESE,112,0.0,-999.0,33,-99.99,,,0.00,Acu-Link.com,2013-03-15 00:00:00,
2013-03-14 20:15:00,43.5,19.6,29.99,ESE,112,0.0,-999.0,38,-99.99,,,0.00,Acu-Link.com,2013-03-15 00:15:00,
2013-03-14 20:30:00,42.1,19.0,29.99,ESE,112,0.0,-999.0,39,-99.99,,,0.00,Acu-Link.com,2013-03-15 00:30:00,
2013-03-14 21:01:00,40.1,20.5,29.99,West,270,0.0,-999.0,45,-99.99,,,0.00,Acu-Link.com,2013-03-15 01:01:00,
2013-03-14 21:16:00,39.0,19.5,30.00,WSW,247,0.0,-999.0,45,-99.99,,,0.00,Acu-Link.com,2013-03-15 01:16:00,
2013-03-14 21:32:00,38.1,20.7,30.00,ESE,112,1.1,-999.0,49,-99.99,,,0.00,Acu-Link.com,2013-03-15 01:32:00,
2013-03-14 21:47:00,37.8,19.4,30.00,ESE,112,0.0,-999.0,47,-99.99,,,0.00,Acu-Link.com,2013-03-15 01:47:00,
2013-03-14 22:02:00,37.2,19.3,30.01,ESE,112,0.0,-999.0,48,-99.99,,,0.00,Acu-Link.com,2013-03-15 02:02:00,
2013-03-14 22:18:00,36.0,19.6,30.01,ESE,112,0.0,-999.0,51,-99.99,,,0.00,Acu-Link.com,2013-03-15 02:18:00,
2013-03-14 22:33:00,34.9,21.6,30.02,ESE,112,0.0,-999.0,58,-99.99,,,0.00,Acu-Link.com,2013-03-15 02:33:00,
2013-03-14 22:48:00,34.3,21.1,30.02,ESE,112,0.0,-999.0,58,-99.99,,,0.00,Acu-Link.com,2013-03-15 02:48:00,
2013-03-14 23:03:00,33.8,21.0,30.02,ESE,112,0.0,-999.0,59,-99.99,,,0.00,Acu-Link.com,2013-03-15 03:03:00,
2013-03-14 23:19:00,33.3,20.5,30.02,ESE,112,0.0,-999.0,59,-99.99,,,0.00,Acu-Link.com,2013-03-15 03:19:00,
2013-03-14 23:34:00,32.7,21.5,30.03,ESE,112,0.0,-999.0,63,-99.99,,,0.00,Acu-Link.com,2013-03-15 03:34:00,
2013-03-14 23:49:00,32.4,23.0,30.03,ESE,112,0.0,-999.0,68,-99.99,,,0.00,Acu-Link.com,2013-03-15 03:49:00,